EW4327 Weather Reports


time (UTC)temp
C
wind
direction
speed
KPH
gust
KPH
rain 1hr
cm
rain 24hr
cm
rain mn
cm
humidity
%
barometer
mb
20260506121517 18 293 0.0 4.8 0.00 0.41 0.00 62 1006.4
20260506120015 18 194 1.6 8.0 0.00 0.41 0.00 61 1006.4
20260506114523 17 116 0.0 8.0 0.00 0.41 0.00 66 1006.6
20260506113014 17 100 0.0 4.8 0.00 0.41 0.00 64 1006.6
20260506111512 18 99 0.0 9.7 0.00 0.41 0.00 63 1006.7
20260506110014 17 238 3.2 12.9 0.00 0.41 0.00 72 1006.9
20260506104505 16 223 0.0 8.0 0.00 0.41 0.00 72 1007.1
20260506103015 16 257 0.0 4.8 0.00 0.41 0.00 73 1007.1
20260506101504 16 227 1.6 8.0 0.00 0.41 0.00 73 1007.2
20260506100001 16 259 0.0 4.8 0.00 0.41 0.00 76 1007.1
20260506094559 16 290 0.0 8.0 0.00 0.41 0.00 76 1007.1
20260506093100 16 246 0.0 8.0 0.00 0.41 0.00 77 1007.3
20260506091555 15 186 0.0 4.8 0.00 0.41 0.00 80 1007.3
20260506090053 15 273 0.0 0.0 0.00 0.41 0.00 83 1007.2
20260506084551 15 217 0.0 4.8 0.00 0.41 0.00 83 1007.3
20260506083109 15 178 0.0 4.8 0.00 0.41 0.00 82 1007.5
20260506081551 15 261 1.6 9.7 0.00 0.41 0.00 85 1007.5
20260506073042 13 173 0.0 3.2 0.00 0.41 0.00 90 1007.1
20260506071538 12 223 0.0 3.2 0.00 0.41 0.00 91 1007.1
20260506061535 11 167 0.0 0.0 0.00 0.41 0.00 92 1007.2
20260506044517 8 242 0.0 0.0 0.00 0.41 0.00 92 1007.8
20260506043014 8 242 0.0 0.0 0.00 0.41 0.00 92 1007.8
20260506041511 8 242 0.0 0.0 0.00 0.41 0.00 92 1007.7
20260506040008 8 242 0.0 0.0 0.00 0.41 0.00 92 1007.5
20260506034508 8 242 0.0 0.0 0.00 0.41 0.00 92 1007.5
20260506033013 9 242 0.0 0.0 0.00 0.41 0.00 92 1007.3
20260506031506 9 242 0.0 0.0 0.00 0.41 0.00 92 1007.2
20260506030002 10 242 0.0 0.0 0.00 0.41 0.00 92 1007.4
20260506024606 10 242 0.0 0.0 0.00 0.41 0.00 92 1007.5
20260506023059 10 264 0.0 0.0 0.00 0.41 0.00 92 1007.6
20260506021559 10 264 0.0 0.0 0.00 0.41 0.00 92 1007.5
20260506020110 10 264 0.0 0.0 0.00 0.41 0.00 92 1007.5
20260506014611 10 264 0.0 0.0 0.00 0.41 0.00 92 1007.4
20260506013056 10 265 0.0 0.0 0.00 0.41 0.00 92 1007.6
20260506011619 10 263 0.0 0.0 0.00 0.41 0.00 92 1007.6
20260506010053 10 266 0.0 0.0 0.00 0.41 0.00 92 1007.7
20260506004603 10 246 0.0 0.0 0.00 0.43 0.00 92 1007.6
20260506003052 10 194 0.0 0.0 0.00 0.43 0.00 91 1007.7
20260506001550 10 193 0.0 0.0 0.00 0.43 0.00 92 1007.8
20260506000113 10 187 0.0 0.0 0.00 0.43 0.00 91 1007.9
20260505234551 11 205 0.0 0.0 0.00 0.43 0.00 91 1008.0
20260505233044 11 197 0.0 0.0 0.00 0.43 0.00 92 1008.1
20260505231546 11 199 0.0 0.0 0.00 0.43 0.00 92 1008.2
20260505230100 11 244 0.0 0.0 0.00 0.43 0.00 91 1008.2
20260505224543 11 249 0.0 0.0 0.00 0.43 0.00 91 1008.3
20260505223040 11 229 0.0 0.0 0.00 0.43 0.00 91 1008.3
20260505221539 11 204 0.0 0.0 0.00 0.43 0.00 91 1008.2
20260505220039 11 240 0.0 0.0 0.00 0.43 0.00 91 1008.2
20260505214535 11 234 0.0 0.0 0.00 0.43 0.43 91 1008.1
20260505213037 11 234 0.0 0.0 0.00 0.43 0.43 91 1008.0
20260505211540 11 234 0.0 0.0 0.00 0.43 0.43 91 1008.0
20260505210033 12 209 0.0 0.0 0.00 0.43 0.43 91 1008.0
20260505204544 12 270 0.0 0.0 0.00 0.43 0.43 91 1007.8
20260505203037 12 246 0.0 0.0 0.00 0.43 0.43 91 1007.7
20260505201532 12 251 0.0 0.0 0.00 0.43 0.43 91 1007.5
20260505200032 12 248 0.0 0.0 0.00 0.43 0.43 90 1007.5
20260505194539 13 248 0.0 0.0 0.00 0.43 0.43 91 1007.6
20260505193029 12 253 0.0 0.0 0.00 0.43 0.43 90 1007.6
20260505191528 13 317 0.0 0.0 0.00 0.43 0.43 90 1007.3
20260505190026 13 294 0.0 0.0 0.00 0.43 0.43 90 1007.1
20260505184528 13 292 0.0 0.0 0.00 0.43 0.43 90 1007.1
20260505183022 13 280 0.0 0.0 0.00 0.43 0.43 90 1007.0
20260505181522 13 325 0.0 0.0 0.03 0.43 0.43 90 1006.8
20260505180025 13 246 0.0 0.0 0.03 0.43 0.43 89 1006.9
20260505174521 13 240 0.0 0.0 0.05 0.43 0.43 89 1006.6
20260505173022 13 284 0.0 0.0 0.05 0.43 0.43 89 1006.6
20260505171520 13 283 0.0 0.0 0.05 0.41 0.41 89 1006.7
20260505170021 13 275 0.0 0.0 0.10 0.41 0.41 89 1006.5
20260505164517 13 274 1.6 16.1 0.18 0.38 0.38 88 1006.4
20260505163017 14 267 3.2 14.5 0.33 0.36 0.36 88 1006.6
20260505161517 14 253 3.2 19.3 0.33 0.33 0.33 86 1006.8
20260505153015 21 262 11.3 35.4 0.00 0.03 0.03 52 1005.8
20260505151515 22 288 0.0 0.0 0.00 0.03 0.03 48 1005.0
20260505124601 22 341 0.0 0.0 0.00 0.03 0.03 47 1006.1
20260505123103 22 59 0.0 1.6 0.00 0.03 0.03 46 1006.1